| time (UTC) | temp F | wind direction | speed MPH | gust MPH | rain 1hr in | rain 24hr in | rain mn in | humidity % | barometer mb |
| 20260831042510 | 81 | 209 | 0.0 | 0.0 | 0.00 | 0.00 | 0.00 | 79 | 1007.8 |
| 20260831042010 | 81 | 209 | 0.0 | 0.0 | 0.00 | 0.00 | 0.00 | 79 | 1007.9 |
| 20260831041009 | 81 | 208 | 0.0 | 0.0 | 0.00 | 0.00 | 0.00 | 79 | 1008.0 |
| 20260831040509 | 81 | 191 | 0.0 | 0.0 | 0.00 | 0.00 | 0.00 | 79 | 1008.1 |
| 20260831040009 | 81 | 191 | 0.0 | 0.0 | 0.00 | 0.00 | 0.00 | 79 | 1008.3 |
| 20260831035509 | 82 | 190 | 0.0 | 0.0 | 0.00 | 0.00 | 0.00 | 78 | 1008.4 |
| 20260831035009 | 82 | 190 | 0.0 | 0.0 | 0.00 | 0.00 | 0.00 | 78 | 1008.4 |
| 20260831034512 | 82 | 190 | 0.0 | 0.0 | 0.00 | 0.00 | 0.00 | 77 | 1008.4 |
| 20260831034009 | 82 | 191 | 0.0 | 0.0 | 0.00 | 0.00 | 0.00 | 77 | 1008.4 |
| 20260831033509 | 82 | 191 | 0.0 | 0.0 | 0.00 | 0.00 | 0.00 | 77 | 1008.4 |
| 20260831033009 | 82 | 191 | 0.0 | 0.0 | 0.00 | 0.00 | 0.00 | 76 | 1008.3 |
| 20260831032509 | 82 | 191 | 0.0 | 0.0 | 0.00 | 0.00 | 0.00 | 75 | 1008.4 |
| 20260831031508 | 83 | 189 | 0.0 | 0.0 | 0.00 | 0.00 | 0.00 | 75 | 1008.3 |
| 20260831031009 | 83 | 188 | 0.0 | 0.0 | 0.00 | 0.00 | 0.00 | 74 | 1008.4 |
| 20260831030509 | 83 | 194 | 0.0 | 0.0 | 0.00 | 0.00 | 0.00 | 74 | 1008.5 |
| 20260831030009 | 83 | 195 | 0.0 | 0.0 | 0.00 | 0.00 | 0.00 | 74 | 1008.6 |
| 20260831025509 | 83 | 195 | 0.0 | 0.0 | 0.00 | 0.00 | 0.00 | 73 | 1008.6 |
| 20260831025009 | 84 | 199 | 0.0 | 0.0 | 0.00 | 0.00 | 0.00 | 73 | 1008.6 |
| 20260831024009 | 84 | 205 | 0.0 | 0.0 | 0.00 | 0.00 | 0.00 | 72 | 1008.6 |
| 20260831023509 | 84 | 206 | 0.0 | 0.0 | 0.00 | 0.00 | 0.00 | 71 | 1008.5 |
| 20260831023010 | 84 | 207 | 0.0 | 0.0 | 0.00 | 0.00 | 0.00 | 70 | 1008.5 |
| 20260831022509 | 85 | 208 | 0.0 | 0.0 | 0.00 | 0.00 | 0.00 | 70 | 1008.4 |
| 20260831022009 | 85 | 208 | 0.0 | 0.0 | 0.00 | 0.00 | 0.00 | 70 | 1008.4 |
| 20260831021009 | 85 | 208 | 0.0 | 0.0 | 0.00 | 0.00 | 0.00 | 69 | 1008.3 |
| 20260831020509 | 85 | 207 | 0.0 | 0.0 | 0.00 | 0.00 | 0.00 | 69 | 1008.3 |
| 20260831015509 | 86 | 208 | 0.0 | 0.0 | 0.00 | 0.00 | 0.00 | 68 | 1008.2 |
| 20260831015009 | 86 | 208 | 0.0 | 0.0 | 0.00 | 0.00 | 0.00 | 67 | 1008.1 |
| 20260831014009 | 87 | 207 | 0.0 | 0.0 | 0.00 | 0.00 | 0.00 | 66 | 1007.9 |
| 20260831013509 | 87 | 208 | 0.0 | 0.0 | 0.00 | 0.00 | 0.00 | 65 | 1007.9 |
| 20260831013010 | 87 | 208 | 0.0 | 0.0 | 0.00 | 0.00 | 0.00 | 65 | 1007.9 |
| 20260831012509 | 88 | 208 | 0.0 | 1.0 | 0.00 | 0.00 | 0.00 | 64 | 1007.9 |
| 20260831012009 | 88 | 208 | 0.0 | 1.0 | 0.00 | 0.00 | 0.00 | 64 | 1007.9 |
| 20260831011510 | 88 | 208 | 0.0 | 0.0 | 0.00 | 0.00 | 0.00 | 63 | 1007.9 |
| 20260831011010 | 89 | 207 | 0.0 | 1.0 | 0.00 | 0.00 | 0.00 | 63 | 1007.8 |
| 20260831010510 | 89 | 208 | 0.0 | 2.0 | 0.00 | 0.00 | 0.00 | 62 | 1007.8 |
| 20260831005510 | 90 | 208 | 1.0 | 2.0 | 0.00 | 0.00 | 0.00 | 62 | 1007.8 |
| 20260831004510 | 90 | 208 | 0.0 | 2.0 | 0.00 | 0.00 | 0.00 | 60 | 1007.8 |
| 20260831004010 | 91 | 208 | 0.0 | 2.0 | 0.00 | 0.00 | 0.00 | 60 | 1007.8 |
| 20260831003510 | 91 | 209 | 1.0 | 2.0 | 0.00 | 0.00 | 0.00 | 60 | 1007.8 |
| 20260831003010 | 91 | 207 | 0.0 | 1.0 | 0.00 | 0.00 | 0.00 | 59 | 1007.7 |
| 20260831002010 | 91 | 208 | 0.0 | 1.0 | 0.00 | 0.00 | 0.00 | 59 | 1007.7 |
| 20260831001510 | 91 | 209 | 0.0 | 1.0 | 0.00 | 0.00 | 0.00 | 59 | 1007.7 |
| 20260831001010 | 91 | 208 | 0.0 | 1.0 | 0.00 | 0.00 | 0.00 | 59 | 1007.7 |
| 20260831000509 | 91 | 208 | 0.0 | 1.0 | 0.00 | 0.00 | 0.00 | 59 | 1007.6 |
| 20260831000010 | 91 | 208 | 0.0 | 1.0 | 0.00 | 0.00 | 0.00 | 59 | 1007.7 |
| 20260830235510 | 91 | 207 | 0.0 | 1.0 | 0.00 | 0.00 | 0.00 | 59 | 1007.7 |
| 20260830235010 | 91 | 207 | 0.0 | 3.0 | 0.00 | 0.00 | 0.00 | 59 | 1007.7 |
| 20260830234510 | 91 | 208 | 1.0 | 3.0 | 0.00 | 0.00 | 0.00 | 58 | 1007.7 |
| 20260830233510 | 91 | 126 | 1.0 | 3.0 | 0.00 | 0.00 | 0.00 | 59 | 1007.6 |
| 20260830232510 | 91 | 172 | 1.0 | 3.0 | 0.00 | 0.00 | 0.00 | 59 | 1007.6 |
| 20260830232009 | 91 | 202 | 1.0 | 3.0 | 0.00 | 0.00 | 0.00 | 58 | 1007.5 |
| 20260830231509 | 91 | 224 | 1.0 | 3.0 | 0.00 | 0.00 | 0.00 | 59 | 1007.6 |
| 20260830231009 | 91 | 220 | 1.0 | 5.0 | 0.00 | 0.00 | 0.00 | 58 | 1007.5 |
| 20260830230509 | 91 | 203 | 2.0 | 5.0 | 0.00 | 0.00 | 0.00 | 57 | 1007.4 |
| 20260830230009 | 91 | 192 | 2.0 | 6.0 | 0.00 | 0.00 | 0.00 | 57 | 1007.3 |
| 20260830225009 | 91 | 204 | 1.0 | 3.0 | 0.00 | 0.00 | 0.00 | 58 | 1007.4 |
| 20260830224509 | 91 | 211 | 1.0 | 3.0 | 0.00 | 0.00 | 0.00 | 58 | 1007.4 |
| 20260830223509 | 91 | 199 | 2.0 | 5.0 | 0.00 | 0.00 | 0.00 | 57 | 1007.4 |
| 20260830223009 | 91 | 214 | 1.0 | 5.0 | 0.00 | 0.00 | 0.00 | 57 | 1007.4 |
| 20260830222509 | 91 | 214 | 3.0 | 5.0 | 0.00 | 0.00 | 0.00 | 57 | 1007.3 |
| 20260830221509 | 91 | 215 | 2.0 | 3.0 | 0.00 | 0.00 | 0.00 | 56 | 1007.2 |
| 20260830221009 | 91 | 205 | 2.0 | 5.0 | 0.00 | 0.00 | 0.00 | 56 | 1007.1 |
| 20260830220008 | 92 | 198 | 2.0 | 5.0 | 0.00 | 0.00 | 0.00 | 56 | 1007.2 |
| 20260830215509 | 92 | 218 | 1.0 | 5.0 | 0.00 | 0.00 | 0.00 | 57 | 1007.2 |
| 20260830215009 | 92 | 208 | 3.0 | 5.0 | 0.00 | 0.00 | 0.00 | 56 | 1007.2 |
| 20260830214009 | 92 | 222 | 2.0 | 6.0 | 0.00 | 0.00 | 0.00 | 56 | 1007.1 |
| 20260830213509 | 92 | 146 | 2.0 | 7.0 | 0.00 | 0.00 | 0.00 | 55 | 1007.1 |
| 20260830213012 | 92 | 239 | 2.0 | 7.0 | 0.00 | 0.00 | 0.00 | 55 | 1007.2 |
| 20260830212508 | 92 | 213 | 1.0 | 6.0 | 0.00 | 0.00 | 0.00 | 58 | 1007.2 |
| 20260830211510 | 91 | 198 | 1.0 | 5.0 | 0.00 | 0.00 | 0.00 | 58 | 1007.4 |
| 20260830211009 | 91 | 211 | 2.0 | 5.0 | 0.00 | 0.00 | 0.00 | 57 | 1007.6 |
| 20260830210509 | 91 | 156 | 1.0 | 3.0 | 0.00 | 0.00 | 0.00 | 58 | 1007.7 |
| 20260830205509 | 90 | 187 | 1.0 | 7.0 | 0.00 | 0.00 | 0.00 | 58 | 1007.8 |
| 20260830205009 | 90 | 219 | 4.0 | 7.0 | 0.00 | 0.00 | 0.00 | 59 | 1007.8 |
| 20260830204009 | 90 | 294 | 2.0 | 3.0 | 0.00 | 0.00 | 0.00 | 59 | 1007.9 |
| 20260830203509 | 89 | 220 | 1.0 | 6.0 | 0.00 | 0.00 | 0.00 | 59 | 1007.9 |
| 20260830203010 | 89 | 217 | 2.0 | 6.0 | 0.00 | 0.00 | 0.00 | 58 | 1007.8 |
| 20260830202509 | 89 | 209 | 3.0 | 6.0 | 0.00 | 0.00 | 0.00 | 59 | 1007.8 |
| 20260830202010 | 89 | 208 | 1.0 | 3.0 | 0.00 | 0.00 | 0.00 | 59 | 1007.7 |
| 20260830201510 | 89 | 214 | 1.0 | 3.0 | 0.00 | 0.00 | 0.00 | 60 | 1007.7 |
| 20260830201010 | 89 | 92 | 0.0 | 5.0 | 0.00 | 0.00 | 0.00 | 62 | 1007.8 |
| 20260830200510 | 89 | 194 | 1.0 | 7.0 | 0.00 | 0.00 | 0.00 | 61 | 1008.0 |
| 20260830200010 | 88 | 209 | 2.0 | 7.0 | 0.00 | 0.00 | 0.00 | 61 | 1008.2 |
| 20260830195510 | 88 | 203 | 1.0 | 3.0 | 0.00 | 0.00 | 0.00 | 61 | 1008.2 |
| 20260830195010 | 88 | 204 | 1.0 | 3.0 | 0.00 | 0.00 | 0.00 | 61 | 1008.3 |
| 20260830194510 | 88 | 212 | 1.0 | 5.0 | 0.00 | 0.00 | 0.00 | 61 | 1008.3 |
| 20260830194010 | 89 | 214 | 2.0 | 5.0 | 0.00 | 0.00 | 0.00 | 60 | 1008.4 |
| 20260830193510 | 89 | 212 | 2.0 | 5.0 | 0.00 | 0.00 | 0.00 | 59 | 1008.4 |
| 20260830193010 | 89 | 218 | 2.0 | 7.0 | 0.00 | 0.00 | 0.00 | 59 | 1008.4 |
| 20260830192010 | 89 | 212 | 4.0 | 9.0 | 0.00 | 0.00 | 0.00 | 57 | 1008.3 |
| 20260830191509 | 89 | 209 | 3.0 | 9.0 | 0.00 | 0.00 | 0.00 | 57 | 1008.3 |
| 20260830191010 | 89 | 185 | 3.0 | 7.0 | 0.00 | 0.00 | 0.00 | 57 | 1008.0 |
| 20260830190510 | 89 | 228 | 3.0 | 6.0 | 0.00 | 0.00 | 0.00 | 56 | 1008.1 |
| 20260830185510 | 89 | 211 | 3.0 | 6.0 | 0.00 | 0.00 | 0.00 | 58 | 1008.1 |
| 20260830185010 | 89 | 179 | 2.0 | 5.0 | 0.00 | 0.00 | 0.00 | 56 | 1008.2 |
| 20260830184010 | 90 | 217 | 2.0 | 5.0 | 0.00 | 0.00 | 0.00 | 54 | 1008.1 |
| 20260830183510 | 90 | 213 | 2.0 | 5.0 | 0.00 | 0.00 | 0.00 | 54 | 1008.2 |
| 20260830182509 | 90 | 204 | 3.0 | 7.0 | 0.00 | 0.00 | 0.00 | 53 | 1008.3 |
| 20260830182009 | 91 | 217 | 4.0 | 7.0 | 0.00 | 0.00 | 0.00 | 53 | 1008.4 |
| 20260830181509 | 91 | 182 | 1.0 | 6.0 | 0.00 | 0.00 | 0.00 | 52 | 1008.6 |
| 20260830181009 | 91 | 226 | 2.0 | 6.0 | 0.00 | 0.00 | 0.00 | 52 | 1008.7 |
| 20260830180509 | 91 | 198 | 3.0 | 6.0 | 0.00 | 0.00 | 0.00 | 54 | 1008.7 |
| 20260830180009 | 90 | 210 | 3.0 | 6.0 | 0.00 | 0.00 | 0.00 | 56 | 1008.7 |
| 20260830175509 | 90 | 228 | 3.0 | 6.0 | 0.00 | 0.00 | 0.00 | 55 | 1008.7 |
| 20260830174509 | 91 | 233 | 4.0 | 10.0 | 0.00 | 0.00 | 0.00 | 54 | 1008.7 |
| 20260830173509 | 90 | 239 | 4.0 | 12.0 | 0.00 | 0.00 | 0.00 | 55 | 1008.7 |
| 20260830173009 | 90 | 175 | 2.0 | 6.0 | 0.00 | 0.00 | 0.00 | 57 | 1008.7 |
| 20260830171508 | 89 | 221 | 2.0 | 12.0 | 0.00 | 0.00 | 0.00 | 57 | 1008.8 |
| 20260830171009 | 89 | 186 | 3.0 | 12.0 | 0.00 | 0.00 | 0.00 | 57 | 1008.8 |
| 20260830170509 | 88 | 183 | 2.0 | 12.0 | 0.00 | 0.00 | 0.00 | 58 | 1008.8 |
| 20260830170009 | 88 | 188 | 3.0 | 6.0 | 0.00 | 0.00 | 0.00 | 58 | 1008.8 |
| 20260830165509 | 88 | 200 | 2.0 | 6.0 | 0.00 | 0.00 | 0.00 | 58 | 1008.8 |
| 20260830165009 | 87 | 208 | 3.0 | 5.0 | 0.00 | 0.00 | 0.00 | 59 | 1008.9 |
| 20260830164509 | 87 | 194 | 3.0 | 12.0 | 0.00 | 0.00 | 0.00 | 60 | 1008.9 |
| 20260830164009 | 86 | 213 | 5.0 | 12.0 | 0.00 | 0.00 | 0.00 | 61 | 1008.9 |
| 20260830163509 | 86 | 198 | 2.0 | 7.0 | 0.00 | 0.00 | 0.00 | 65 | 1008.8 |
| 20260830163009 | 85 | 172 | 2.0 | 7.0 | 0.00 | 0.00 | 0.00 | 65 | 1008.9 |
| 20260830162509 | 84 | 168 | 3.0 | 7.0 | 0.00 | 0.00 | 0.00 | 66 | 1008.9 |
| 20260830162009 | 84 | 180 | 2.0 | 5.0 | 0.00 | 0.00 | 0.00 | 67 | 1009.0 |
| 20260830161009 | 83 | 150 | 3.0 | 9.0 | 0.00 | 0.00 | 0.00 | 66 | 1009.0 |
| 20260830160510 | 83 | 136 | 1.0 | 6.0 | 0.00 | 0.00 | 0.00 | 66 | 1009.0 |
| 20260830155509 | 83 | 160 | 2.0 | 7.0 | 0.00 | 0.00 | 0.00 | 67 | 1008.9 |
| 20260830155009 | 82 | 156 | 3.0 | 7.0 | 0.00 | 0.00 | 0.00 | 68 | 1009.0 |
| 20260830154510 | 82 | 145 | 2.0 | 6.0 | 0.00 | 0.00 | 0.00 | 69 | 1009.0 |
| 20260830154009 | 82 | 178 | 2.0 | 6.0 | 0.00 | 0.00 | 0.00 | 70 | 1009.1 |
| 20260830153509 | 81 | 173 | 2.0 | 7.0 | 0.00 | 0.00 | 0.00 | 70 | 1009.0 |
| 20260830152509 | 81 | 156 | 3.0 | 10.0 | 0.00 | 0.00 | 0.00 | 70 | 1009.0 |
| 20260830152010 | 80 | 144 | 3.0 | 10.0 | 0.00 | 0.00 | 0.00 | 71 | 1009.0 |
| 20260830150510 | 79 | 175 | 4.0 | 12.0 | 0.00 | 0.00 | 0.00 | 72 | 1009.0 |
| 20260830150010 | 79 | 138 | 2.0 | 6.0 | 0.00 | 0.00 | 0.00 | 73 | 1009.0 |
| 20260830145510 | 79 | 157 | 3.0 | 5.0 | 0.00 | 0.00 | 0.00 | 74 | 1009.0 |
| 20260830145010 | 78 | 146 | 2.0 | 3.0 | 0.00 | 0.00 | 0.00 | 74 | 1009.0 |
| 20260830144510 | 78 | 164 | 1.0 | 3.0 | 0.00 | 0.00 | 0.00 | 74 | 1009.0 |
| 20260830144010 | 78 | 157 | 1.0 | 3.0 | 0.00 | 0.00 | 0.00 | 75 | 1009.0 |
| 20260830143510 | 78 | 171 | 1.0 | 3.0 | 0.00 | 0.00 | 0.00 | 75 | 1009.0 |
| 20260830143010 | 78 | 175 | 0.0 | 1.0 | 0.00 | 0.00 | 0.00 | 75 | 1009.1 |
| 20260830142510 | 78 | 176 | 0.0 | 2.0 | 0.00 | 0.00 | 0.00 | 74 | 1009.1 |
| 20260830142010 | 78 | 176 | 0.0 | 3.0 | 0.00 | 0.00 | 0.00 | 74 | 1008.9 |
| 20260830141510 | 77 | 173 | 1.0 | 5.0 | 0.00 | 0.00 | 0.00 | 74 | 1009.0 |
| 20260830140510 | 77 | 165 | 1.0 | 3.0 | 0.00 | 0.00 | 0.00 | 74 | 1009.0 |
| 20260830140010 | 77 | 165 | 1.0 | 3.0 | 0.00 | 0.00 | 0.00 | 74 | 1008.9 |
| 20260830135510 | 77 | 173 | 1.0 | 3.0 | 0.00 | 0.00 | 0.00 | 74 | 1009.0 |
| 20260830134510 | 77 | 136 | 0.0 | 3.0 | 0.00 | 0.00 | 0.00 | 74 | 1008.9 |
| 20260830134009 | 77 | 141 | 1.0 | 2.0 | 0.00 | 0.00 | 0.00 | 74 | 1008.9 |
| 20260830133509 | 77 | 141 | 0.0 | 3.0 | 0.00 | 0.00 | 0.00 | 74 | 1008.9 |
| 20260830133009 | 77 | 141 | 0.0 | 3.0 | 0.00 | 0.00 | 0.00 | 74 | 1008.9 |
| 20260830132009 | 77 | 144 | 1.0 | 3.0 | 0.00 | 0.00 | 0.00 | 74 | 1009.1 |
| 20260830131509 | 77 | 126 | 1.0 | 3.0 | 0.00 | 0.00 | 0.00 | 74 | 1009.1 |
| 20260830131009 | 77 | 136 | 0.0 | 3.0 | 0.00 | 0.00 | 0.00 | 74 | 1009.0 |
| 20260830130008 | 77 | 129 | 1.0 | 3.0 | 0.00 | 0.00 | 0.00 | 73 | 1009.0 |
| 20260830125509 | 77 | 129 | 0.0 | 2.0 | 0.00 | 0.00 | 0.00 | 73 | 1009.0 |
| 20260830125009 | 77 | 131 | 0.0 | 5.0 | 0.00 | 0.00 | 0.00 | 73 | 1009.0 |
| 20260830124509 | 77 | 165 | 1.0 | 5.0 | 0.00 | 0.00 | 0.00 | 73 | 1009.0 |
| 20260830124009 | 77 | 136 | 0.0 | 2.0 | 0.00 | 0.00 | 0.00 | 73 | 1009.0 |
| 20260830123509 | 77 | 136 | 0.0 | 6.0 | 0.00 | 0.00 | 0.00 | 73 | 1009.0 |
| 20260830122509 | 77 | 154 | 2.0 | 6.0 | 0.00 | 0.00 | 0.00 | 73 | 1008.7 |
| 20260830122009 | 77 | 153 | 2.0 | 6.0 | 0.00 | 0.00 | 0.00 | 73 | 1008.8 |
| 20260830121510 | 77 | 145 | 2.0 | 6.0 | 0.00 | 0.00 | 0.00 | 73 | 1009.0 |
| 20260830121009 | 77 | 149 | 1.0 | 3.0 | 0.00 | 0.00 | 0.00 | 73 | 1009.0 |
| 20260830120509 | 77 | 152 | 1.0 | 6.0 | 0.00 | 0.00 | 0.00 | 73 | 1009.0 |
| 20260830120009 | 77 | 165 | 3.0 | 6.0 | 0.00 | 0.00 | 0.00 | 72 | 1008.9 |
| 20260830115010 | 78 | 143 | 2.0 | 7.0 | 0.00 | 0.00 | 0.00 | 72 | 1008.8 |
| 20260830114510 | 78 | 150 | 2.0 | 6.0 | 0.00 | 0.00 | 0.00 | 71 | 1008.8 |
| 20260830114009 | 78 | 144 | 1.0 | 3.0 | 0.00 | 0.00 | 0.00 | 71 | 1008.9 |
| 20260830113509 | 78 | 117 | 2.0 | 3.0 | 0.00 | 0.00 | 0.00 | 71 | 1008.8 |
| 20260830113010 | 79 | 134 | 2.0 | 3.0 | 0.00 | 0.00 | 0.00 | 70 | 1008.9 |
| 20260830112010 | 79 | 156 | 1.0 | 2.0 | 0.00 | 0.00 | 0.00 | 69 | 1009.1 |
| 20260830111510 | 79 | 156 | 0.0 | 3.0 | 0.00 | 0.00 | 0.00 | 68 | 1009.3 |
| 20260830111009 | 80 | 156 | 2.0 | 3.0 | 0.00 | 0.00 | 0.00 | 68 | 1009.1 |
| 20260830110509 | 80 | 156 | 1.0 | 2.0 | 0.00 | 0.00 | 0.00 | 67 | 1009.0 |
| 20260830110010 | 80 | 156 | 0.0 | 2.0 | 0.00 | 0.00 | 0.00 | 67 | 1009.0 |
| 20260830105509 | 80 | 138 | 1.0 | 3.0 | 0.00 | 0.00 | 0.00 | 66 | 1008.8 |
| 20260830105009 | 80 | 198 | 1.0 | 3.0 | 0.00 | 0.00 | 0.00 | 66 | 1008.8 |
| 20260830104510 | 80 | 154 | 0.0 | 2.0 | 0.00 | 0.00 | 0.00 | 66 | 1008.9 |
| 20260830104010 | 80 | 165 | 1.0 | 2.0 | 0.00 | 0.00 | 0.00 | 66 | 1009.0 |
| 20260830103510 | 79 | 183 | 1.0 | 3.0 | 0.00 | 0.00 | 0.00 | 67 | 1009.1 |
| 20260830103010 | 79 | 219 | 1.0 | 3.0 | 0.00 | 0.00 | 0.00 | 67 | 1009.1 |
| 20260830102510 | 79 | 143 | 1.0 | 3.0 | 0.00 | 0.00 | 0.00 | 67 | 1009.0 |
| 20260830102010 | 79 | 205 | 2.0 | 5.0 | 0.00 | 0.00 | 0.00 | 67 | 1008.9 |
| 20260830101510 | 79 | 171 | 2.0 | 5.0 | 0.00 | 0.00 | 0.00 | 67 | 1008.9 |
| 20260830101010 | 79 | 199 | 1.0 | 3.0 | 0.00 | 0.00 | 0.00 | 67 | 1008.9 |
| 20260830100510 | 79 | 144 | 1.0 | 3.0 | 0.00 | 0.00 | 0.00 | 68 | 1008.9 |
| 20260830100010 | 79 | 200 | 1.0 | 3.0 | 0.00 | 0.00 | 0.00 | 68 | 1009.1 |
| 20260830095510 | 79 | 205 | 1.0 | 3.0 | 0.00 | 0.00 | 0.00 | 68 | 1009.2 |
| 20260830095010 | 79 | 184 | 1.0 | 3.0 | 0.00 | 0.00 | 0.00 | 68 | 1009.0 |
| 20260830094509 | 79 | 189 | 1.0 | 2.0 | 0.00 | 0.00 | 0.00 | 68 | 1009.0 |
| 20260830094010 | 79 | 175 | 0.0 | 3.0 | 0.00 | 0.00 | 0.00 | 69 | 1009.4 |
| 20260830093509 | 79 | 175 | 0.0 | 3.0 | 0.00 | 0.00 | 0.00 | 69 | 1009.2 |
| 20260830093010 | 79 | 163 | 1.0 | 3.0 | 0.00 | 0.00 | 0.00 | 68 | 1008.9 |
| 20260830092509 | 79 | 140 | 1.0 | 3.0 | 0.00 | 0.00 | 0.00 | 68 | 1008.8 |
| 20260830092010 | 79 | 159 | 1.0 | 3.0 | 0.00 | 0.00 | 0.00 | 68 | 1008.7 |
| 20260830091510 | 79 | 184 | 1.0 | 3.0 | 0.00 | 0.00 | 0.00 | 68 | 1008.7 |
| 20260830091010 | 79 | 171 | 1.0 | 5.0 | 0.00 | 0.00 | 0.00 | 68 | 1008.6 |
| 20260830090510 | 79 | 184 | 1.0 | 5.0 | 0.00 | 0.00 | 0.00 | 68 | 1008.6 |
| 20260830090009 | 79 | 167 | 1.0 | 6.0 | 0.00 | 0.00 | 0.00 | 69 | 1008.7 |
| 20260830085509 | 79 | 161 | 3.0 | 12.0 | 0.00 | 0.00 | 0.00 | 69 | 1008.7 |
| 20260830085009 | 79 | 175 | 2.0 | 12.0 | 0.00 | 0.00 | 0.00 | 69 | 1008.6 |
| 20260830083509 | 79 | 196 | 2.0 | 3.0 | 0.00 | 0.00 | 0.00 | 69 | 1008.7 |
| 20260830083012 | 79 | 128 | 1.0 | 3.0 | 0.00 | 0.00 | 0.00 | 68 | 1008.7 |
| 20260830082009 | 79 | 198 | 1.0 | 5.0 | 0.00 | 0.00 | 0.00 | 68 | 1008.6 |
| 20260830081509 | 80 | 173 | 1.0 | 5.0 | 0.00 | 0.00 | 0.00 | 68 | 1008.6 |
| 20260830081009 | 80 | 192 | 1.0 | 3.0 | 0.00 | 0.00 | 0.00 | 68 | 1008.5 |
| 20260830080509 | 80 | 203 | 2.0 | 3.0 | 0.00 | 0.00 | 0.00 | 68 | 1008.5 |
| 20260830080009 | 80 | 148 | 2.0 | 3.0 | 0.00 | 0.00 | 0.00 | 68 | 1008.6 |
| 20260830075509 | 80 | 190 | 1.0 | 3.0 | 0.00 | 0.00 | 0.00 | 68 | 1008.6 |
| 20260830075009 | 80 | 181 | 1.0 | 3.0 | 0.00 | 0.00 | 0.00 | 68 | 1008.5 |
| 20260830074509 | 80 | 157 | 1.0 | 3.0 | 0.00 | 0.00 | 0.00 | 67 | 1008.5 |
| 20260830074009 | 80 | 207 | 1.0 | 6.0 | 0.00 | 0.00 | 0.00 | 67 | 1008.5 |
| 20260830073509 | 80 | 198 | 2.0 | 6.0 | 0.00 | 0.00 | 0.00 | 67 | 1008.5 |
| 20260830073009 | 80 | 184 | 1.0 | 3.0 | 0.00 | 0.00 | 0.00 | 67 | 1008.5 |
| 20260830072509 | 80 | 148 | 1.0 | 5.0 | 0.00 | 0.00 | 0.00 | 67 | 1008.5 |
| 20260830072009 | 80 | 208 | 2.0 | 5.0 | 0.00 | 0.00 | 0.00 | 67 | 1008.5 |
| 20260830071510 | 81 | 229 | 2.0 | 5.0 | 0.00 | 0.00 | 0.00 | 67 | 1008.5 |
| 20260830071009 | 81 | 148 | 1.0 | 5.0 | 0.00 | 0.00 | 0.00 | 67 | 1008.5 |
| 20260830070509 | 81 | 190 | 2.0 | 5.0 | 0.00 | 0.00 | 0.00 | 67 | 1008.5 |
| 20260830070010 | 81 | 159 | 2.0 | 5.0 | 0.00 | 0.00 | 0.00 | 67 | 1008.5 |
| 20260830065510 | 81 | 167 | 1.0 | 5.0 | 0.00 | 0.00 | 0.00 | 67 | 1008.5 |
| 20260830065010 | 81 | 179 | 2.0 | 5.0 | 0.00 | 0.00 | 0.00 | 67 | 1008.5 |
| 20260830064510 | 81 | 161 | 1.0 | 6.0 | 0.00 | 0.00 | 0.00 | 67 | 1008.5 |
| 20260830063509 | 81 | 170 | 2.0 | 7.0 | 0.00 | 0.00 | 0.00 | 67 | 1008.7 |
| 20260830063010 | 81 | 171 | 2.0 | 7.0 | 0.00 | 0.00 | 0.00 | 67 | 1008.7 |
| 20260830062509 | 81 | 163 | 2.0 | 6.0 | 0.00 | 0.00 | 0.00 | 67 | 1008.8 |
| 20260830062010 | 81 | 158 | 2.0 | 6.0 | 0.00 | 0.00 | 0.00 | 67 | 1008.7 |
| 20260830061510 | 81 | 171 | 2.0 | 7.0 | 0.00 | 0.00 | 0.00 | 68 | 1008.6 |
| 20260830061010 | 81 | 176 | 2.0 | 7.0 | 0.00 | 0.00 | 0.00 | 68 | 1008.7 |
| 20260830060510 | 81 | 174 | 3.0 | 7.0 | 0.00 | 0.00 | 0.00 | 68 | 1008.6 |
| 20260830060010 | 81 | 153 | 2.0 | 6.0 | 0.00 | 0.00 | 0.00 | 68 | 1008.7 |
| 20260830055510 | 81 | 140 | 2.0 | 5.0 | 0.00 | 0.00 | 0.00 | 68 | 1008.8 |
| 20260830054510 | 81 | 165 | 2.0 | 6.0 | 0.00 | 0.00 | 0.00 | 69 | 1008.7 |
| 20260830053510 | 81 | 134 | 1.0 | 6.0 | 0.00 | 0.00 | 0.00 | 69 | 1008.7 |
| 20260830053010 | 81 | 123 | 1.0 | 6.0 | 0.00 | 0.00 | 0.00 | 69 | 1008.6 |
| 20260830052010 | 82 | 143 | 1.0 | 5.0 | 0.00 | 0.00 | 0.00 | 69 | 1008.6 |
| 20260830051510 | 82 | 125 | 2.0 | 5.0 | 0.00 | 0.00 | 0.00 | 69 | 1008.6 |
| 20260830051010 | 82 | 164 | 2.0 | 5.0 | 0.00 | 0.00 | 0.00 | 69 | 1008.5 |
| 20260830050509 | 82 | 145 | 2.0 | 9.0 | 0.00 | 0.00 | 0.00 | 69 | 1008.5 |
| 20260830050009 | 82 | 110 | 2.0 | 9.0 | 0.00 | 0.00 | 0.00 | 68 | 1008.5 |
| 20260830045514 | 82 | 132 | 2.0 | 10.0 | 0.00 | 0.00 | 0.00 | 68 | 1008.5 |
| 20260830045009 | 82 | 119 | 2.0 | 10.0 | 0.00 | 0.00 | 0.00 | 68 | 1008.4 |
| 20260830044509 | 83 | 205 | 2.0 | 10.0 | 0.00 | 0.00 | 0.00 | 68 | 1008.4 |
| 20260830044009 | 83 | 155 | 3.0 | 7.0 | 0.00 | 0.00 | 0.00 | 68 | 1008.4 |
| 20260830043010 | 83 | 163 | 2.0 | 7.0 | 0.00 | 0.00 | 0.00 | 68 | 1008.5 |